Regional Weather Roundup
Issued by NWS Green Bay, WI

Home | Current Version | Previous Version | Text Only | Print | Product List | Glossary On
Versions: 1 2 3 4 5 6 7 8 9 10 11 12 13 14 15 16 17 18 19 20 21 22 23 24 25 26 27 28 29 30 31 32 33 34 35 36 37 38 39 40 41 42 43 44 45 46 47 48 49 50
000
ASUS43 KGRB 282300
RWRGRB

NORTH-CENTRAL AND NORTHEAST WISCONSIN REGIONAL WEATHER ROUNDUP
NATIONAL WEATHER SERVICE GREEN BAY WI
600 PM CDT TUE JUL 28 2015

WIZ005-009-010>012-018-019-290000-
NORTH CENTRAL WISCONSIN

CITY           SKY/WX    TMP DP  RH WIND       PRES   REMARKS
IRONWOOD       SUNNY     84  68  58 S10G16    29.79F
MANITOWISH WTR NOT AVBL
ARBOR VITAE    NOT AVBL
EAGLE RIVER    NOT AVBL
LAND O LAKES   NOT AVBL
RHINELANDER    MOSUNNY   80  66  62 S10       29.91F
PHILLIPS       MOSUNNY   81  70  69 S13       29.87S
ANTIGO         NOT AVBL
TOMAHAWK       NOT AVBL
MERRILL        NOT AVBL
$$

WIZ013-073-290000-
NORTHEAST WISCONSIN

CITY           SKY/WX    TMP DP  RH WIND       PRES   REMARKS
IRON MOUNTAIN  MOSUNNY   83  64  52 S8        29.90S
MARINETTE      PTSUNNY   79  63  57 S13G18    29.90F
$$

WIZ017-030-035>037-045-290000-
CENTRAL WISCONSIN

CITY           SKY/WX    TMP DP  RH WIND       PRES   REMARKS
MEDFORD        NOT AVBL
WAUSAU         CLOUDY    84  68  58 S12       29.88S
MOSINEE        NOT AVBL
MARSHFIELD     PTSUNNY   82  69  64 SW10      29.90S
WISC RAPIDS    PTSUNNY   84  69  60 S8        29.90F
STEVENS POINT  NOT AVBL
WAUPACA        NOT AVBL
SHAWANO        NOT AVBL
CLINTONVILLE   PTSUNNY   86  64  48 S7        29.89F
$$

WIZ038-039-048-051-290000-
FOX VALLEY

CITY           SKY/WX    TMP DP  RH WIND       PRES   REMARKS
NWS GREEN BAY  CLOUDY    83  66  56 S10       29.91S
APPLETON       PTSUNNY   82  64  54 S12       29.92R
OSHKOSH        CLOUDY    83  67  58 SE9       29.90R
FOND DU LAC    CLOUDY    83  68  60 SE10      29.91S
$$

WIZ022-050-052-290000-
EAST CENTRAL WISCONSIN

CITY           SKY/WX    TMP DP  RH WIND       PRES   REMARKS
STURGEON BAY   PTSUNNY   77  61  57 S10       29.95R
MANITOWOC      NOT AVBL
SHEBOYGAN      CLOUDY    78  66  66 S8        29.93R
$$

LMZ563-521-522-541>543-290000-
LAKESHORE

STATION/POSITION TIME  TEMP    WIND        PRES    VSBY  WAVE
                       AIR SEA DIR/SP/G                  HT/PER
                 (UTC) (F)     (DEG/KT/KT) (MB)    (MI)  (FT/S)
SHEBOYGAN LKSHOR 2200   72     190/ 10/ 12 1013.0R
KEWAUNEE LKSHORE 2200   70     180/  5/  7 1012.9R
ALGOMA MARINA    2212          220/  9/ 10   N/A
NORTHPORT PIER   2200   76     150/  6/ 10 1012.9F
N MID LAKE BUOY  2150   72 71  170/  4/  4 1013.2F         1
S GREEN BAY BUOY 2200   79 76  150/ 14/ 16 1013.9R
SISTER BAY LKSHO 2229   79     170/  9/ 13   N/A
STURGEON BAY CG  2150   72     190/  4     1014.1      6   1
CHAMBERS ISLAND  2200   80     130/  4/ 10 1012.5F
MENOMINEE LKSHOR 2200   77     150/ 13/ 14 1013.5F
$$


USA.gov is the U.S. government's official web portal to all federal, state and local government web resources and services.